Location: Jetmore Motorplex
(37.9889°N, 99.8876°W)
Time: 05:58:58
(UTC+00:00)

STARLINK-21 - Pass Details

Date: 17 February 2020
Orbit: 529 x 530 km, 53.0° (Epoch: 09 April)

Event Time Altitude Azimuth Distance (km) Brightness Sun altitude
Rises 01:53:53 0° 226° (SW) 2,654 7.8 -19.3°
Reaches altitude 10° 01:56:05 10° 226° (SW) 1,768 6.8 -19.7°
Maximum altitude 02:00:06 88° 136° (SE) 534 3.4 -20.5°
Enters shadow 02:00:45 61° 51° (NE) 603 3.5 -20.6°
